Mercury, NV

8:44 AM PDT on September 22, 2017 (GMT -0700)
Mercury

Weather History for KDRA - March, 2014

Change the Weather History Date:

Sunday, March 23, 2014

  Actual Average Record
Temperature  
Mean Temperature 60 °F 54 °F  
Max Temperature 75 °F 68 °F 83 °F (1990)
Min Temperature 46 °F 41 °F 26 °F (1995)
Degree Days  
Heating Degree Days 6    
Cooling Degree Days 0    
Growing Degree Days 10 (Base 50)    
Moisture  
Dew Point 11 °F    
Average Humidity 14    
Maximum Humidity 27    
Minimum Humidity 4    
Precipitation  
Precipitation 0.00 in 0.02 in 0.65 in (1995)
Month to date precipitation 0.53  
Year to date precipitation 2.16  
Sea Level Pressure  
Sea Level Pressure 30.00 in    
Wind  
Wind Speed 5 mph (ENE)    
Max Wind Speed 12 mph    
Max Gust Speed 18 mph    
Visibility 10 miles    
Events      
T = Trace of Precipitation, MM = Missing Value Source: NWS Daily Summary

Daily Weather History Graph

Daily Weather History Graph

Search for Another Location

Airport or City:

Trip Planner

Search our weather history database for the weather conditions in past years. The results will help you decide how hot, cold, wet, or windy it might be!

Date:

Astronomy

Mar. 23, 2014 Rise Set
Actual Time 6:43 AM PDT 6:58 PM PDT
Civil Twilight 6:17 AM PDT 7:24 PM PDT
Nautical Twilight 5:47 AM PDT 7:54 PM PDT
Astronomical Twilight 5:16 AM PDT 8:25 PM PDT
Moon 1:12 AM PDT (3/23) 11:36 AM PDT (3/23)
Length of Visible Light 13h 07m
Length of Day
12h 15m
Waning Gibbous, 53% of the Moon is Illuminated
Mar 23
Waning Gibbous
Mar 23
Last Quarter
Mar 30
New
Apr 7
First Quarter
Apr 15
Full

Hourly Weather History & Observations

Time (PDT) Temp. Dew Point Humidity Pressure Visibility Wind Dir Wind Speed Gust Speed Precip Events Conditions
12:52 AM 54.0 °F 10.0 °F 17% 29.97 in 10.0 mi NE 4.6 mph - N/A   Clear
1:52 AM 55.9 °F 8.1 °F 15% 29.97 in 10.0 mi NE 10.4 mph - N/A   Clear
2:52 AM 51.1 °F 10.0 °F 19% 29.98 in 10.0 mi NNE 8.1 mph - N/A   Clear
3:52 AM 46.9 °F 10.9 °F 23% 29.98 in 10.0 mi SE 3.5 mph - N/A   Clear
4:52 AM 51.1 °F 9.0 °F 18% 29.99 in 10.0 mi ENE 4.6 mph - N/A   Clear
5:52 AM 48.0 °F 7.0 °F 19% 30.01 in 10.0 mi ESE 4.6 mph - N/A   Clear
7:52 AM 52.0 °F 10.0 °F 19% 30.06 in 10.0 mi Calm Calm - N/A   Clear
8:52 AM 60.1 °F 9.0 °F 13% 30.06 in 10.0 mi ENE 5.8 mph - N/A   Clear
9:52 AM 63.0 °F 8.1 °F 11% 30.06 in 10.0 mi Calm Calm - N/A   Clear
10:52 AM 66.0 °F 9.0 °F 11% 30.06 in 10.0 mi NNW 3.5 mph - N/A   Clear
11:52 AM 69.1 °F 12.0 °F 11% 30.05 in 10.0 mi Calm Calm - N/A   Clear
12:52 PM 72.0 °F 17.1 °F 12% 30.02 in 10.0 mi SSW 8.1 mph - N/A   Clear
1:52 PM 73.0 °F 19.9 °F 14% 29.99 in 10.0 mi WSW 11.5 mph 18.4 mph N/A   Clear
2:52 PM 73.0 °F 16.0 °F 11% 29.99 in 10.0 mi Variable 5.8 mph - N/A   Clear
3:52 PM 73.9 °F 15.1 °F 11% 29.97 in 10.0 mi Variable 4.6 mph 16.1 mph N/A   Clear
4:52 PM 73.0 °F 12.0 °F 10% 29.96 in 10.0 mi West 8.1 mph - N/A   Clear
5:52 PM 72.0 °F 10.0 °F 9% 29.96 in 10.0 mi WSW 10.4 mph - N/A   Clear
6:52 PM 68.0 °F 9.0 °F 10% 29.96 in 10.0 mi SW 5.8 mph - N/A   Clear
7:52 PM 62.1 °F 10.0 °F 13% 29.98 in 10.0 mi Calm Calm - N/A   Clear
8:52 PM 57.9 °F 12.0 °F 16% 30.00 in 10.0 mi ENE 4.6 mph - N/A   Clear
9:52 PM 54.0 °F 12.9 °F 20% 30.01 in 10.0 mi East 4.6 mph - N/A   Clear
10:52 PM 52.0 °F 12.9 °F 21% 30.03 in 10.0 mi Calm Calm - N/A   Clear
11:52 PM 46.9 °F 14.0 °F 27% 30.03 in 10.0 mi Calm Calm - N/A   Clear